Change the Weather History Date:

Sunday, January 5, 2014

  Actual Average Record
Temperature  
Mean Temperature 18 °F -  
Max Temperature 30 °F 30 °F 55 °F (2007)
Min Temperature 5 °F 13 °F 0 °F (2001)
Degree Days  
Heating Degree Days 48    
Moisture  
Dew Point 17 °F    
Average Humidity 79    
Maximum Humidity 93    
Minimum Humidity 47    
Precipitation  
Precipitation 0.01 in - - ()
Sea Level Pressure  
Sea Level Pressure 30.23 in    
Wind  
Wind Speed 2 mph (NE)    
Max Wind Speed 9 mph    
Max Gust Speed -    
Visibility 8 miles    
Events Rain    
Averages and records for this station are not official NWS values.
T = Trace of Precipitation, MM = Missing Value Source: NWS Daily Summary

Daily Weather History Graph

Daily Weather History Graph

Search for Another Location

Airport or City:

Trip Planner

Search our weather history database for the weather conditions in past years. The results will help you decide how hot, cold, wet, or windy it might be!

Date:

Astronomy

Jan. 05, 2014 Rise Set
Actual Time 7:13 AM EST 4:15 PM EST
Civil Twilight 6:40 AM EST 4:48 PM EST
Nautical Twilight 6:04 AM EST 5:24 PM EST
Astronomical Twilight 5:29 AM EST 5:59 PM EST
Moon 9:42 AM EST (1/5) 9:51 PM EST (1/5)
Length of Visible Light 10h 07m
Length of Day
9h 02m
Waxing Crescent, 24% of the Moon is Illuminated
Jan 5
Waxing Crescent
Jan 7
First Quarter
Jan 15
Full
Jan 24
Last Quarter
Jan 30
New

Hourly Weather History & Observations

Time (EST) Temp. Windchill Dew Point Humidity Pressure Visibility Wind Dir Wind Speed Gust Speed Precip Events Conditions
12:53 AM 23.0 °F 13.1 °F 8.1 °F 53% 30.22 in 10.0 mi SSW 9.2 mph - N/A   Mostly Cloudy
1:53 AM 19.9 °F - 8.1 °F 60% 30.25 in 10.0 mi Calm Calm - N/A   Partly Cloudy
2:53 AM 12.0 °F - 7.0 °F 80% 30.25 in 10.0 mi Calm Calm - N/A   Clear
3:53 AM 9.0 °F - 6.1 °F 88% 30.24 in 10.0 mi Calm Calm - N/A   Clear
4:53 AM 6.1 °F - 3.0 °F 87% 30.24 in 10.0 mi Calm Calm - N/A   Clear
5:53 AM 6.1 °F - 3.0 °F 87% 30.26 in 10.0 mi Calm Calm - N/A   Clear
6:53 AM 5.0 °F - 1.0 °F 84% 30.27 in 10.0 mi Calm Calm - N/A   Clear
7:53 AM 7.0 °F - 3.9 °F 87% 30.30 in 10.0 mi Calm Calm - N/A   Clear
8:53 AM 14.0 °F - 9.0 °F 80% 30.32 in 10.0 mi Calm Calm - N/A   Clear
9:53 AM 19.9 °F - 10.9 °F 68% 30.32 in 10.0 mi Calm Calm - N/A   Clear
10:53 AM 21.9 °F - 10.9 °F 63% 30.29 in 10.0 mi Calm Calm - N/A   Clear
11:53 AM 25.0 °F 18.1 °F 9.0 °F 51% 30.27 in 10.0 mi SSW 5.8 mph - N/A   Clear
12:53 PM 28.0 °F 24.2 °F 10.0 °F 47% 30.25 in 10.0 mi SSW 3.5 mph - N/A   Clear
1:53 PM 30.0 °F - 12.0 °F 47% 30.26 in 10.0 mi Calm Calm - N/A   Clear
2:53 PM 28.0 °F - 16.0 °F 61% 30.26 in 10.0 mi Calm Calm - N/A   Clear
3:53 PM 24.1 °F - 18.0 °F 77% 30.27 in 10.0 mi Calm Calm - N/A   Clear
4:53 PM 19.9 °F - 16.0 °F 85% 30.27 in 10.0 mi Calm Calm - N/A   Clear
5:53 PM 19.9 °F - 17.1 °F 89% 30.27 in 10.0 mi Calm Calm - N/A   Mostly Cloudy
6:53 PM 21.9 °F - 19.0 °F 89% 30.27 in 10.0 mi Calm Calm - N/A   Overcast
7:53 PM 27.0 °F 23.0 °F 19.9 °F 75% 30.26 in 10.0 mi Variable 3.5 mph - N/A   Overcast
8:34 PM 27.0 °F - 21.0 °F 78% 30.24 in 10.0 mi Calm Calm - N/A   Overcast
8:53 PM 28.0 °F 24.2 °F 21.9 °F 78% 30.24 in 3.0 mi NE 3.5 mph - 0.00 in   Overcast
8:55 PM 28.0 °F - 23.0 °F 81% 30.23 in 2.5 mi Calm Calm - 0.00 in Rain Light Freezing Rain
9:05 PM 27.0 °F 23.0 °F 23.0 °F 85% 30.22 in 3.0 mi NE 3.5 mph - 0.00 in   Overcast
9:27 PM 28.0 °F - 26.1 °F 92% 30.21 in 3.0 mi Calm Calm - 0.01 in Rain Light Freezing Rain
9:33 PM 28.0 °F - 26.1 °F 92% 30.21 in 4.0 mi Calm Calm - 0.01 in   Overcast
9:46 PM 28.0 °F 24.2 °F 26.1 °F 92% 30.19 in 2.5 mi North 3.5 mph - 0.01 in Rain Light Freezing Rain
9:53 PM 28.0 °F 22.8 °F 26.1 °F 92% 30.19 in 3.0 mi NNE 4.6 mph - 0.01 in Rain Light Freezing Rain
10:02 PM 28.0 °F 24.2 °F 26.1 °F 92% 30.18 in 4.0 mi Variable 3.5 mph - 0.00 in   Overcast
10:43 PM 28.9 °F 25.2 °F 27.0 °F 92% 30.14 in 6.0 mi Variable 3.5 mph - 0.00 in   Overcast
10:50 PM 28.4 °F 24.6 °F 26.6 °F 93% 30.14 in 5.0 mi Variable 3.5 mph - 0.00 in   Overcast
10:53 PM 28.9 °F 25.2 °F 27.0 °F 92% 30.14 in 5.0 mi Variable 3.5 mph - 0.00 in   Overcast
11:10 PM 28.9 °F 23.9 °F 27.0 °F 92% 30.12 in 2.0 mi NE 4.6 mph - N/A   Overcast
11:53 PM 30.0 °F 26.5 °F 28.0 °F 92% 30.09 in 2.5 mi NE 3.5 mph - N/A   Overcast